This demonstration page uses our WeatherBlox Daily Observations layout. Learn more.

Left ArrowRight Arrow

34.16533, -84.80231

Hourly Observations for August 18, 2020

Temp ( °F °C ) Dew Point ( °F °C ) Humidity (%) Winds ( mph kmh ) Pressure ( in mb ) Visibility ( mi km ) Precip ( " mm )
12:53 am 00:53 Clear 69 20.6 64 17.8 84 84 Calm 29.95 1014 10 16 0.00 0.00
1:53 am 01:53 Clear 66 18.9 63 17.2 90 90 Calm 29.95 1014 9 14 0.00 0.00
2:53 am 02:53 Clear 65 18.3 62 16.7 90 90 Calm 29.95 1014 9 14 0.00 0.00
3:53 am 03:53 Clear 65 18.3 62 16.7 90 90 Calm 29.94 1014 9 14 0.00 0.00
4:53 am 04:53 Clear 64 17.8 62 16.7 93 93 Calm 29.94 1014 9 14 0.00 0.00
5:53 am 05:53 Mostly Clear 64 17.8 62 16.7 93 93 Calm 29.93 1014 9 14 0.00 0.00
6:53 am 06:53 Clear 63 17.2 60 15.6 90 90 Calm 29.94 1014 8 13 0.00 0.00
7:53 am 07:53 Sunny 67 19.4 63 17.2 87 87 Calm 29.95 1014 9 14 0.00 0.00
8:53 am 08:53 Sunny 71 21.7 64 17.8 79 79 Calm 29.95 1014 10 16 0.00 0.00
9:53 am 09:53 Sunny 75 23.9 65 18.3 71 71 Calm 29.97 1015 10 16 0.00 0.00
10:53 am 10:53 Sunny 81 27.2 65 18.3 58 58 Calm 29.98 1015 10 16 0.00 0.00
11:53 am 11:53 Sunny 84 28.9 64 17.8 51 51 VRB 3 6 29.97 1015 10 16 0.00 0.00
12:53 pm 12:53 Sunny 86 30 64 17.8 48 48 Calm 29.95 1014 10 16 0.00 0.00
1:53 pm 13:53 Sunny 88 31.1 64 17.8 45 45 NE 3 6 29.93 1014 10 16 0.00 0.00
2:53 pm 14:53 Sunny 90 32.2 63 17.2 41 41 Calm 29.90 1013 10 16 0.00 0.00
3:53 pm 15:53 Sunny 91 32.8 64 17.8 41 41 NNE 5 7 29.87 1011 10 16 0.00 0.00
4:53 pm 16:53 Sunny 90 32.2 63 17.2 41 41 S 5 7 29.84 1011 10 16 0.00 0.00
5:53 pm 17:53 Sunny 90 32.2 64 17.8 42 42 ESE 5 7 29.84 1010 10 16 0.00 0.00
6:53 pm 18:53 Sunny 87 30.6 65 18.3 48 48 Calm 29.84 1011 10 16 0.00 0.00
7:53 pm 19:53 Sunny 84 28.9 65 18.3 53 53 NNE 6 9 29.85 1011 10 16 0.00 0.00
8:53 pm 20:53 Clear 76 24.4 69 20.6 79 79 Calm 29.86 1011 10 16 0.00 0.00
9:53 pm 21:53 Mostly Clear 76 24.4 69 20.6 79 79 Calm 29.88 1012 10 16 0.00 0.00
10:53 pm 22:53 Mostly Cloudy 79 26.1 67 19.4 67 67 Calm 29.88 1012 10 16 0.00 0.00
11:53 pm 23:53 Mostly Clear 77 25 65 18.3 66 66 Calm 29.86 1011 10 16 0.00 0.00

Powered by AerisWeather